[[{"header":{"parameterUnit":"m.s-1","parameterCategory":1,"la1":30.2991,"la2":30.254,"lo1":-89.0895,"lo2":-89.0444,"dy":0.0017,"dx":0.0017,"nx":28,"ny":28,"refTime":"2023-08-02T09:00:00:Z","depth":0,"parameterNumber":2,"parameterNumberName":"U-component_of_WINDS"},"data":[0,0,0,0,0,0,0,0,0,0,0,0,0,0,0,0,0,0,0,0,0,0,0,0,0,0,0,0,0,0,0,0,0,0,0,0,0,0,0,0,0,0,0,0,0,0,0,0,0,0,0,0,0,0,0,0,0,0,-0.4417,-0.4418,0,-0.4484,-0.4484,-0.4485,-0.4523,-0.4523,-0.4524,-0.4524,-0.4594,-0.4595,-0.4597,0,0,0,0,0,0,0,0,0,0,0,0,0,-0.4326,-0.4328,-0.4417,-0.4418,-0.4419,-0.4484,-0.4484,-0.4485,-0.4523,-0.4523,-0.4524,-0.4524,-0.4593,-0.4595,-0.4597,0,0,0,0,0,0,0,0,0,0,0,0,0,-0.4377,-0.4328,-0.4417,-0.4446,-0.4449,-0.4483,-0.4484,-0.4486,-0.4523,-0.4523,-0.4524,-0.4524,-0.4592,-0.4595,-0.4597,-0.4609,0,0,-0.4605,-0.4607,0,0,0,0,0,0,0,0,-0.4374,-0.438,-0.4441,-0.4444,-0.4447,-0.4495,-0.4478,-0.4527,-0.4523,-0.4495,-0.4524,-0.4524,-0.4561,-0.4566,-0.4578,-0.4613,-0.4616,-0.4606,-0.4607,-0.4608,-0.4609,0,0,0,0,0,0,0,-0.437,-0.4377,-0.4444,-0.4442,-0.4446,-0.4456,-0.4463,-0.4488,-0.4526,-0.4498,-0.45,-0.4508,-0.4563,-0.4576,-0.458,-0.4617,-0.4606,-0.4608,-0.461,-0.4611,-0.4666,-0.4665,0,0,0,0,0,0,-0.4362,-0.4374,-0.4442,-0.4446,-0.441,-0.4457,-0.4466,-0.448,-0.4526,-0.4533,-0.4507,-0.4509,-0.4571,-0.4577,-0.4583,-0.4601,-0.4608,-0.4611,-0.4612,-0.4666,-0.4666,-0.4665,0,0,0,0,0,0,-0.436,-0.4367,-0.4439,-0.4411,-0.4421,-0.4459,-0.4474,-0.4481,-0.4494,-0.4533,-0.4541,-0.4513,-0.4571,-0.4579,-0.4603,-0.4603,-0.4612,-0.4614,-0.4666,-0.4666,-0.4665,-0.4636,0,0,0,0,0,0,-0.4357,-0.4366,-0.4371,-0.441,-0.4422,-0.4457,-0.4474,-0.4482,-0.4498,-0.4501,-0.4541,-0.4548,-0.4572,-0.4598,-0.4605,-0.4607,-0.4616,-0.4666,-0.4666,-0.4666,-0.4637,-0.4634,-0.4633,0,0,0,0,0,-0.4353,-0.436,-0.4371,-0.4379,-0.4428,-0.4457,-0.4463,-0.4491,-0.4498,-0.4503,-0.4529,-0.4546,-0.4602,-0.4601,-0.4608,-0.4611,-0.4666,-0.4666,-0.4666,-0.4638,-0.4635,-0.4633,0,0,0,0,0,0,-0.432,-0.4366,-0.4378,-0.4398,-0.4423,-0.4463,-0.447,-0.4487,-0.4512,-0.4514,-0.4547,-0.4556,-0.4577,-0.4596,-0.4594,-0.4626,-0.4636,-0.4637,-0.4612,-0.461,-0.4608,-0.4603,-0.4619,0,0,0,0,0,-0.4315,-0.4334,-0.4373,-0.4386,-0.4398,-0.4432,-0.4446,-0.4465,-0.4493,-0.4504,-0.4531,-0.4558,-0.4582,-0.4597,-0.4621,-0.464,-0.4649,-0.4645,-0.4643,-0.4641,-0.4642,-0.4655,-0.4654,-0.4665,-0.4665,-0.4665,0,0,-0.4304,-0.4332,-0.4342,-0.438,-0.4402,-0.4422,-0.4441,-0.4461,-0.4476,-0.4507,-0.4531,-0.4552,-0.4584,-0.4606,-0.4617,-0.4623,-0.4642,-0.4641,-0.4639,-0.4642,-0.4654,-0.4653,-0.4652,-0.4665,-0.4665,-0.4665,0,0,-0.4296,-0.4318,-0.4332,-0.4353,-0.4386,-0.4408,-0.4412,-0.4449,-0.4464,-0.4489,-0.4513,-0.4532,-0.4572,-0.4594,-0.4611,-0.4611,-0.4628,-0.4618,-0.4607,-0.4619,-0.4618,-0.4617,-0.4618,-0.4618,-0.4618,-0.4618,-0.4618,0,-0.4279,-0.4309,-0.4337,-0.4355,-0.4372,-0.44,-0.4415,-0.4435,-0.4474,-0.4486,-0.4492,-0.4543,-0.4567,-0.4594,-0.4594,-0.4606,-0.4612,-0.4614,-0.4615,-0.4615,-0.4615,-0.4616,-0.4617,-0.4617,-0.4617,-0.4617,-0.4617,0,-0.4287,-0.4307,-0.4315,-0.4351,-0.4369,-0.4385,-0.4417,-0.4431,-0.4449,-0.4471,-0.4496,-0.4525,-0.4556,-0.4564,-0.4581,-0.4594,-0.4597,-0.4609,-0.462,-0.4612,-0.4614,-0.4615,-0.4615,-0.4615,-0.4616,-0.4616,0,0,-0.4259,-0.4311,-0.4313,-0.4331,-0.4369,-0.4386,-0.4404,-0.4433,-0.4446,-0.4472,-0.4489,-0.4522,-0.4533,-0.4552,-0.4572,-0.4582,-0.4581,-0.4593,-0.4594,-0.4591,-0.4598,-0.459,-0.459,-0.4593,-0.4593,-0.4593,-0.4596,0,-0.4257,-0.429,-0.4316,-0.434,-0.436,-0.4387,-0.4404,-0.4429,-0.445,-0.4471,-0.4495,-0.4518,-0.453,-0.4542,-0.4553,-0.4579,-0.4584,-0.4579,-0.461,-0.4611,-0.4602,-0.4591,-0.4582,-0.4583,-0.4597,-0.4597,-0.4597,0,-0.4259,-0.4283,-0.4309,-0.4346,-0.4355,-0.4369,-0.4398,-0.4417,-0.4447,-0.4462,-0.4483,-0.4504,-0.4525,-0.4534,-0.4565,-0.4561,-0.4575,-0.459,-0.4591,-0.4595,-0.4604,-0.4596,-0.4584,-0.4584,-0.4598,-0.4598,-0.4598,0,-0.4237,-0.4277,-0.4297,-0.4311,-0.4354,-0.4363,-0.4382,-0.4412,-0.4428,-0.4454,-0.4466,-0.4494,-0.4509,-0.4531,-0.456,-0.4563,-0.4588,-0.4598,-0.4602,-0.4601,-0.4606,-0.4606,-0.4597,-0.4614,-0.4614,-0.4614,-0.4614,0,-0.4232,-0.4247,-0.4288,-0.4301,-0.4319,-0.4349,-0.4366,-0.4387,-0.4414,-0.4432,-0.4457,-0.4474,-0.451,-0.4531,-0.4553,-0.4576,-0.4583,-0.4596,-0.4602,-0.4594,-0.4593,-0.4605,-0.4606,-0.4614,-0.4614,-0.4614,-0.4614,0,-0.4211,-0.4239,-0.4264,-0.4303,-0.4313,-0.4324,-0.4358,-0.4372,-0.4394,-0.4417,-0.4424,-0.4459,-0.4486,-0.4516,-0.4552,-0.4568,-0.4589,-0.4597,-0.4578,-0.4582,-0.4584,-0.4584,-0.4583,-0.4585,-0.4599,-0.4599,-0.4599,0,-0.4207,-0.4219,-0.4259,-0.4272,-0.429,-0.4312,-0.4328,-0.4358,-0.4375,-0.441,-0.442,-0.4448,-0.4472,-0.4513,-0.4543,-0.4571,-0.4581,-0.4579,-0.4585,-0.4577,-0.4582,-0.4581,-0.4583,-0.4577,-0.4577,-0.4577,-0.4576,0,-0.4196,-0.4209,-0.4232,-0.426,-0.4278,-0.4302,-0.4326,-0.4336,-0.4372,-0.4389,-0.4416,-0.4434,-0.4471,-0.4499,-0.4531,-0.4552,-0.457,-0.4574,-0.4576,-0.4569,-0.4558,-0.4565,-0.4574,-0.4574,-0.4574,-0.4574,-0.4575,-0.4575,-0.4184,-0.4196,-0.4226,-0.4251,-0.4272,-0.4295,-0.431,-0.4334,-0.4357,-0.4389,-0.4405,-0.4432,-0.4463,-0.4507,-0.4527,-0.4549,-0.4555,-0.4558,-0.4559,-0.456,-0.4558,-0.4554,-0.4555,-0.4555,-0.4555,-0.4555,-0.4555,0,-0.4176,-0.4196,-0.4218,-0.4251,-0.4271,-0.4286,-0.4314,-0.4329,-0.4352,-0.4379,-0.4402,-0.4433,-0.4461,-0.4492,-0.4522,-0.4533,-0.4543,-0.454,-0.454,-0.4545,-0.4551,-0.4546,-0.4532,-0.4532,-0.4532,-0.4532,-0.4532,-0.4532,-0.4173,-0.4195,-0.4212,-0.4245,-0.4266,-0.4292,-0.4306,-0.4328,-0.4349,-0.4382,-0.4405,-0.4425,-0.4454,-0.4486,-0.4512,-0.4521,-0.4531,-0.4526,-0.4537,-0.4542,-0.4544,-0.4546,-0.4542,-0.4527,-0.4527,-0.453,-0.453,-0.453]},{"header":{"parameterUnit":"m.s-1","parameterCategory":1,"la1":30.2991,"la2":30.254,"lo1":-89.0895,"lo2":-89.0444,"dy":0.0017,"dx":0.0017,"nx":28,"ny":28,"refTime":"2023-08-02T09:00:00:Z","depth":0,"parameterNumber":3,"parameterNumberName":"V-component_of_WINDS"},"data":[0,0,0,0,0,0,0,0,0,0,0,0,0,0,0,0,0,0,0,0,0,0,0,0,0,0,0,0,0,0,0,0,0,0,0,0,0,0,0,0,0,0,0,0,0,0,0,0,0,0,0,0,0,0,0,0,0,0,-0.5769,-0.5767,0,-0.5606,-0.5604,-0.5602,-0.5528,-0.5528,-0.5529,-0.5529,-0.5357,-0.5352,-0.5348,0,0,0,0,0,0,0,0,0,0,0,0,0,-0.6011,-0.6007,-0.5769,-0.5767,-0.5765,-0.5607,-0.5604,-0.5602,-0.5528,-0.5528,-0.5529,-0.5529,-0.5359,-0.5353,-0.5347,0,0,0,0,0,0,0,0,0,0,0,0,0,-0.5883,-0.6006,-0.577,-0.5709,-0.5702,-0.5607,-0.5604,-0.5601,-0.5528,-0.5528,-0.5529,-0.5529,-0.536,-0.5354,-0.5347,-0.5297,0,0,-0.5325,-0.5322,0,0,0,0,0,0,0,0,-0.589,-0.5874,-0.572,-0.5713,-0.5705,-0.5588,-0.5626,-0.5499,-0.5528,-0.5594,-0.5529,-0.5529,-0.5433,-0.542,-0.5389,-0.5289,-0.5282,-0.5324,-0.532,-0.5317,-0.5315,0,0,0,0,0,0,0,-0.5899,-0.5881,-0.5705,-0.5718,-0.5709,-0.5689,-0.5671,-0.5602,-0.5514,-0.5588,-0.5583,-0.5565,-0.5429,-0.5396,-0.5384,-0.5279,-0.5324,-0.5318,-0.5314,-0.5311,-0.5129,-0.5129,0,0,0,0,0,0,-0.5919,-0.5889,-0.571,-0.57,-0.58,-0.5684,-0.5664,-0.5625,-0.5515,-0.5498,-0.5565,-0.5562,-0.5408,-0.5393,-0.5378,-0.5312,-0.5317,-0.531,-0.5306,-0.513,-0.5129,-0.5128,0,0,0,0,0,0,-0.5924,-0.5903,-0.5716,-0.5792,-0.5767,-0.568,-0.5637,-0.5622,-0.5589,-0.5497,-0.548,-0.5547,-0.5408,-0.5388,-0.5318,-0.5305,-0.5307,-0.5301,-0.513,-0.5129,-0.5129,-0.518,0,0,0,0,0,0,-0.5931,-0.5906,-0.5888,-0.5793,-0.5763,-0.5661,-0.5636,-0.5619,-0.5577,-0.5572,-0.5476,-0.546,-0.5406,-0.5329,-0.5311,-0.5295,-0.5295,-0.5131,-0.513,-0.5129,-0.5179,-0.5181,-0.5183,0,0,0,0,0,-0.594,-0.5908,-0.5887,-0.5866,-0.5739,-0.566,-0.5643,-0.5583,-0.5577,-0.5556,-0.5497,-0.5463,-0.531,-0.5322,-0.5301,-0.5283,-0.5132,-0.513,-0.5129,-0.5178,-0.5181,-0.5183,0,0,0,0,0,0,-0.6002,-0.5894,-0.587,-0.5806,-0.5743,-0.5648,-0.5621,-0.5588,-0.5524,-0.5522,-0.5448,-0.5427,-0.5363,-0.5316,-0.5332,-0.5229,-0.5217,-0.5212,-0.5262,-0.5264,-0.5265,-0.5278,-0.5289,0,0,0,0,0,-0.6008,-0.5955,-0.5863,-0.5816,-0.5785,-0.5709,-0.5672,-0.5632,-0.5562,-0.5535,-0.547,-0.5403,-0.5339,-0.5299,-0.5235,-0.5172,-0.5149,-0.5149,-0.5151,-0.5153,-0.5149,-0.511,-0.5109,-0.5124,-0.5124,-0.5124,0,0,-0.602,-0.5955,-0.5926,-0.5826,-0.5773,-0.5717,-0.5687,-0.5629,-0.5587,-0.5525,-0.5455,-0.5406,-0.5326,-0.5259,-0.5226,-0.5218,-0.514,-0.5152,-0.5154,-0.5148,-0.5109,-0.5108,-0.5106,-0.5123,-0.5124,-0.5124,0,0,-0.6014,-0.596,-0.5914,-0.5861,-0.5781,-0.573,-0.5719,-0.5628,-0.5594,-0.5523,-0.5475,-0.5422,-0.5315,-0.5259,-0.5217,-0.519,-0.5155,-0.5171,-0.518,-0.5143,-0.5142,-0.5141,-0.5129,-0.5126,-0.5167,-0.5167,-0.5167,0,-0.6039,-0.5955,-0.5894,-0.584,-0.5796,-0.574,-0.5691,-0.5642,-0.5545,-0.5515,-0.5508,-0.5371,-0.5313,-0.5232,-0.5225,-0.5193,-0.5177,-0.5181,-0.5148,-0.5145,-0.5143,-0.5131,-0.5127,-0.517,-0.5169,-0.5169,-0.5169,0,-0.5989,-0.5932,-0.5904,-0.5812,-0.5766,-0.5715,-0.5644,-0.5605,-0.5568,-0.5518,-0.5445,-0.5374,-0.5294,-0.5272,-0.5235,-0.5185,-0.5182,-0.5162,-0.5149,-0.5145,-0.5133,-0.5128,-0.5173,-0.5172,-0.5171,-0.5171,0,0,-0.6016,-0.5892,-0.5883,-0.584,-0.5747,-0.57,-0.5646,-0.557,-0.5536,-0.5471,-0.5422,-0.5332,-0.5313,-0.5265,-0.5221,-0.519,-0.517,-0.5173,-0.517,-0.5174,-0.5108,-0.5123,-0.5119,-0.5148,-0.5147,-0.5146,-0.5115,0,-0.5996,-0.5898,-0.5841,-0.5765,-0.5711,-0.5656,-0.5608,-0.5545,-0.5496,-0.5441,-0.5386,-0.5323,-0.5304,-0.5274,-0.524,-0.518,-0.5156,-0.5182,-0.5099,-0.5097,-0.512,-0.5113,-0.5128,-0.5102,-0.511,-0.5109,-0.5108,0,-0.596,-0.5897,-0.5816,-0.5729,-0.5703,-0.5662,-0.5587,-0.5535,-0.5462,-0.5428,-0.5375,-0.5331,-0.527,-0.5262,-0.5175,-0.5194,-0.5157,-0.5122,-0.5119,-0.5108,-0.5102,-0.51,-0.5093,-0.5088,-0.51,-0.5101,-0.5101,0,-0.5987,-0.5881,-0.5819,-0.5784,-0.5681,-0.5653,-0.5608,-0.5535,-0.5492,-0.5426,-0.5397,-0.5324,-0.5284,-0.5228,-0.5165,-0.5166,-0.5083,-0.5071,-0.5052,-0.5054,-0.5036,-0.5038,-0.5021,-0.5015,-0.5015,-0.5015,-0.5015,0,-0.597,-0.5922,-0.583,-0.5791,-0.5736,-0.567,-0.5616,-0.5567,-0.5502,-0.5451,-0.5399,-0.5353,-0.5273,-0.5216,-0.5166,-0.5101,-0.5083,-0.5053,-0.504,-0.5057,-0.5061,-0.5031,-0.503,-0.5014,-0.5014,-0.5014,-0.5015,0,-0.599,-0.5926,-0.5855,-0.5763,-0.5738,-0.5701,-0.5622,-0.5581,-0.553,-0.5467,-0.5448,-0.5367,-0.5297,-0.5229,-0.5135,-0.5101,-0.5035,-0.5019,-0.5061,-0.5053,-0.5038,-0.5039,-0.5,-0.4991,-0.4993,-0.4993,-0.4993,0,-0.5983,-0.5945,-0.5849,-0.5813,-0.5769,-0.5711,-0.5667,-0.5601,-0.5557,-0.547,-0.544,-0.5366,-0.5304,-0.5194,-0.5125,-0.5053,-0.5033,-0.5024,-0.5022,-0.504,-0.5031,-0.5034,-0.5029,-0.5026,-0.5026,-0.5027,-0.5027,0,-0.5976,-0.5947,-0.5887,-0.5816,-0.5766,-0.5707,-0.5645,-0.5617,-0.5538,-0.5492,-0.5421,-0.5372,-0.5276,-0.5203,-0.5123,-0.5074,-0.5036,-0.5028,-0.502,-0.5036,-0.5061,-0.5046,-0.5064,-0.5029,-0.5029,-0.5029,-0.5029,-0.5029,-0.5981,-0.5945,-0.5872,-0.5806,-0.5753,-0.5697,-0.5654,-0.5598,-0.5538,-0.5456,-0.542,-0.5347,-0.5272,-0.5161,-0.5113,-0.5054,-0.5044,-0.5032,-0.5029,-0.5027,-0.503,-0.5072,-0.5039,-0.5039,-0.5038,-0.5038,-0.5038,0,-0.5971,-0.5921,-0.5862,-0.5778,-0.5727,-0.5698,-0.5628,-0.5586,-0.5523,-0.5458,-0.5398,-0.5315,-0.5244,-0.517,-0.5094,-0.506,-0.5041,-0.5042,-0.5043,-0.5032,-0.5043,-0.5057,-0.5059,-0.5059,-0.5059,-0.5059,-0.5059,-0.5059,-0.596,-0.5896,-0.5858,-0.5766,-0.5716,-0.5646,-0.5608,-0.5555,-0.5502,-0.5413,-0.5354,-0.5307,-0.5237,-0.5155,-0.5088,-0.5068,-0.5041,-0.5047,-0.5022,-0.5033,-0.5032,-0.5031,-0.5044,-0.5043,-0.5043,-0.5016,-0.5016,-0.5016]}]]